FW8741 Weather Reports


time (UTC)temp
F
wind
direction
speed
knots
gust
knots
rain 1hr
in
rain 24hr
in
rain mn
in
humidity
%
barometer
mb
20260506033128 69 0 0.0 4.3 0.00 0.01 0.01 55 1009.7
20260506031544 70 327 0.0 7.8 0.00 0.01 0.01 53 1009.7
20260506030040 71 263 0.0 8.7 0.00 0.01 0.01 52 1009.6
20260506024545 71 271 0.9 2.6 0.00 0.01 0.01 52 1009.6
20260506023053 71 271 1.7 4.3 0.00 0.01 0.01 51 1009.7
20260506021547 71 271 0.9 4.3 0.00 0.01 0.01 51 1009.6
20260506020110 71 274 0.9 3.5 0.00 0.01 0.01 51 1009.5
20260506014540 72 291 0.9 7.8 0.00 0.01 0.01 50 1009.4
20260506013043 72 175 0.9 5.2 0.00 0.01 0.01 49 1009.2
20260506011549 72 262 0.9 3.5 0.00 0.01 0.01 47 1009.1
20260506010045 73 126 0.0 3.5 0.00 0.01 0.01 45 1008.9
20260506004551 74 2 0.0 6.1 0.00 0.01 0.01 44 1008.9
20260506003041 74 122 0.9 4.3 0.00 0.01 0.01 43 1008.6
20260506001554 75 0 0.9 6.1 0.00 0.01 0.01 41 1008.6
20260506000113 75 294 1.7 7.8 0.00 0.01 0.01 41 1008.4
20260505234548 76 209 1.7 5.2 0.00 0.01 0.01 41 1008.3
20260505233054 76 288 0.9 4.3 0.00 0.01 0.01 42 1008.2
20260505231556 76 302 1.7 6.1 0.00 0.01 0.01 41 1008.1
20260505230051 77 257 0.9 5.2 0.00 0.01 0.01 41 1007.9
20260505224551 77 259 0.9 8.7 0.00 0.01 0.01 40 1008.0
20260505223051 77 265 2.6 10.4 0.00 0.01 0.01 42 1007.8
20260505221548 77 262 1.7 7.0 0.00 0.01 0.01 40 1007.7
20260505220053 78 273 1.7 9.6 0.00 0.01 0.01 39 1007.6
20260505214554 79 228 4.3 13.0 0.00 0.01 0.01 38 1007.7
20260505213045 80 311 4.3 9.6 0.00 0.01 0.01 38 1007.5
20260505211623 81 236 3.5 14.8 0.00 0.01 0.01 37 1007.5
20260505210051 81 218 1.7 14.8 0.00 0.01 0.01 37 1007.3
20260505204559 82 257 2.6 10.4 0.00 0.01 0.01 36 1007.2
20260505203048 82 207 3.5 8.7 0.00 0.01 0.01 36 1007.5
20260505201543 82 141 3.5 17.4 0.00 0.01 0.01 34 1007.2
20260505200041 82 291 2.6 8.7 0.00 0.01 0.01 33 1007.4
20260505194548 82 75 3.5 11.3 0.00 0.01 0.01 35 1007.5
20260505193040 83 294 1.7 8.7 0.00 0.01 0.01 33 1007.7
20260505191547 83 224 2.6 6.1 0.00 0.01 0.01 35 1007.6
20260505190044 82 148 2.6 9.6 0.00 0.01 0.01 36 1007.9
20260505184548 81 235 4.3 11.3 0.00 0.01 0.01 35 1008.0
20260505183041 80 275 3.5 9.6 0.00 0.01 0.01 38 1008.1
20260505181643 81 253 2.6 10.4 0.00 0.01 0.01 38 1008.4
20260505174552 81 318 1.7 7.8 0.00 0.01 0.01 40 1008.9
20260505173049 80 273 4.3 10.4 0.00 0.01 0.01 41 1009.0
20260505171559 80 283 3.5 8.7 0.00 0.01 0.01 43 1009.0
20260505170049 80 2 3.5 11.3 0.00 0.01 0.01 40 1009.4
20260505164542 79 226 3.5 11.3 0.00 0.01 0.01 43 1009.7
20260505163043 79 165 3.5 9.6 0.00 0.01 0.01 45 1009.8
20260505161550 78 285 4.3 7.8 0.00 0.01 0.01 47 1009.9
20260505153045 75 249 2.6 14.8 0.00 0.01 0.01 54 1010.3
20260505151551 74 107 2.6 7.0 0.00 0.01 0.01 51 1010.6
20260505124551 59 335 0.0 2.6 0.00 0.01 0.01 83 1011.1
20260505123057 56 0 0.0 1.7 0.00 0.01 0.01 93 1011.1
20260505121546 54 0 0.0 0.9 0.00 0.01 0.01 95 1011.2
20260505120103 53 0 0.0 0.0 0.00 0.01 0.01 95 1011.0
20260505114552 53 0 0.0 0.9 0.00 0.01 0.01 95 1010.9
20260505113048 52 0 0.0 0.9 0.00 0.01 0.01 95 1011.1
20260505111544 52 0 0.0 0.9 0.00 0.01 0.01 94 1011.0
20260505110108 52 0 0.0 0.0 0.00 0.01 0.01 94 1010.8
20260505101546 53 0 0.0 0.9 0.01 0.01 0.01 91 1010.0
20260505100043 53 0 0.0 2.6 0.01 0.01 0.01 91 1009.8
20260505094541 53 21 0.9 1.7 0.00 0.00 0.00 88 1010.2
20260505093049 50 0 0.0 1.7 0.00 0.00 0.00 89 1011.1
20260505091552 48 7 0.0 0.9 0.00 0.00 0.00 89 1011.0
20260505090042 48 0 0.0 0.9 0.00 0.00 0.00 91 1010.7
20260505084544 48 0 0.0 0.0 0.00 0.00 0.00 89 1010.5
20260505083104 48 0 0.0 0.0 0.00 0.00 0.00 89 1010.2
20260505081544 48 0 0.0 0.0 0.00 0.00 0.00 87 1010.1
20260505080042 48 0 0.0 0.0 0.00 0.00 0.00 87 1010.1
20260505074548 48 0 0.0 0.0 0.00 0.00 0.00 87 1010.0
20260505073055 48 0 0.0 0.0 0.00 0.00 0.00 87 1010.1
20260505071543 48 0 0.0 0.0 0.00 0.00 0.00 85 1010.1
20260505070101 49 0 0.0 0.9 0.00 0.00 0.00 86 1010.0
20260505064627 48 0 0.0 0.9 0.00 0.00 0.00 84 1010.0
20260505063049 48 0 0.0 0.9 0.00 0.00 0.00 83 1010.2
20260505061549 50 0 0.0 0.0 0.00 0.00 0.00 81 1010.2
20260505060046 51 0 0.0 0.9 0.00 0.00 0.00 78 1010.3
20260505054549 53 22 0.0 1.7 0.00 0.00 0.00 78 1010.3
20260505053052 50 0 0.0 0.9 0.00 0.00 0.00 84 1010.4
20260505051551 48 0 0.0 0.0 0.00 0.00 0.00 86 1010.4
20260505041551 50 0 0.0 0.0 0.00 0.00 0.00 81 1010.1
20260505040100 50 0 0.0 0.0 0.00 0.00 0.00 80 1010.0
20260505034607 51 0 0.0 0.0 0.00 0.00 0.00 78 1010.0